Retour au catalogue

STARLINK-35477

ActifCommunicationsVLEO
NORAD 66338·PAYLOAD·🇺🇸 United States

Lancé Nov 6, 2025 depuis Cape Canaveral Space Force Station

Loading…

Prochains Passages (prochaines 24 heures)

TLE

FraisSource: CelesTrak SupGP

Époque: Sep 15, 2026, 04:10 UTC

1 66338C 25253V   26258.17409722 -.00040851  00000+0 -14798-2 0  2586
2 66338  43.0021 222.3070 0001371 271.3735 130.0807 15.27595530    16

Suivez STARLINK-35477 en temps réel avec AllMySat

Download on the App Store